TimeCST,TemperatureF,Dew PointF,Humidity,Sea Level PressureIn,VisibilityMPH,Wind Direction,Wind SpeedMPH,Gust SpeedMPH,PrecipitationIn,Events,Conditions,WindDirDegrees,DateUTC
12:15 AM,24.8,19.4,80,30.00,10.0,West,17.3,21.9,N/A,,Overcast,270,2013-02-12 06:15:00
12:35 AM,24.8,17.6,74,30.00,10.0,West,13.8,-,N/A,,Overcast,270,2013-02-12 06:35:00
12:55 AM,24.8,19.4,80,30.00,10.0,West,13.8,-,N/A,,Overcast,270,2013-02-12 06:55:00
1:15 AM,24.8,19.4,80,30.02,10.0,West,13.8,-,N/A,,Overcast,270,2013-02-12 07:15:00
1:35 AM,24.8,19.4,80,30.02,10.0,West,12.7,-,N/A,,Overcast,260,2013-02-12 07:35:00
1:55 AM,24.8,17.6,74,30.02,10.0,West,15.0,-,N/A,,Overcast,270,2013-02-12 07:55:00
2:15 AM,23.0,17.6,80,30.03,10.0,WNW,12.7,24.2,N/A,,Overcast,290,2013-02-12 08:15:00
2:35 AM,23.0,15.8,74,30.03,10.0,West,19.6,25.3,N/A,,Overcast,280,2013-02-12 08:35:00
2:55 AM,23.0,17.6,80,30.03,10.0,West,15.0,21.9,N/A,,Overcast,280,2013-02-12 08:55:00
3:15 AM,23.0,17.6,80,30.03,10.0,West,12.7,-,N/A,,Overcast,280,2013-02-12 09:15:00
3:35 AM,23.0,17.6,80,30.03,10.0,West,15.0,-,N/A,,Overcast,280,2013-02-12 09:35:00
3:55 AM,23.0,17.6,80,30.02,10.0,West,15.0,25.3,N/A,,Overcast,280,2013-02-12 09:55:00
4:15 AM,23.0,17.6,80,30.03,10.0,WNW,12.7,19.6,N/A,,Overcast,290,2013-02-12 10:15:00
4:35 AM,23.0,17.6,80,30.03,10.0,West,15.0,18.4,N/A,,Overcast,280,2013-02-12 10:35:00
4:55 AM,23.0,17.6,80,30.03,10.0,West,13.8,-,N/A,,Overcast,280,2013-02-12 10:55:00
5:15 AM,23.0,17.6,80,30.02,10.0,West,16.1,-,N/A,,Overcast,270,2013-02-12 11:15:00
5:35 AM,23.0,17.6,80,30.02,10.0,West,12.7,17.3,N/A,,Overcast,280,2013-02-12 11:35:00
5:55 AM,23.0,15.8,74,30.02,10.0,West,16.1,20.7,N/A,,Overcast,280,2013-02-12 11:55:00
6:15 AM,23.0,15.8,74,30.02,10.0,West,11.5,-,N/A,,Overcast,280,2013-02-12 12:15:00
6:35 AM,23.0,15.8,74,30.02,10.0,West,12.7,-,N/A,,Overcast,280,2013-02-12 12:35:00
6:55 AM,23.0,15.8,74,30.03,10.0,West,13.8,19.6,N/A,Snow,Light Snow,280,2013-02-12 12:55:00
7:15 AM,23.0,15.8,74,30.04,10.0,West,12.7,18.4,N/A,,Overcast,270,2013-02-12 13:15:00
7:35 AM,23.0,15.8,74,30.04,10.0,WNW,12.7,19.6,N/A,Snow,Light Snow,290,2013-02-12 13:35:00
7:55 AM,23.0,15.8,74,30.06,10.0,West,11.5,-,N/A,Snow,Light Snow,280,2013-02-12 13:55:00
8:15 AM,23.0,14.0,68,30.06,10.0,West,13.8,18.4,N/A,Snow,Light Snow,280,2013-02-12 14:15:00
8:35 AM,23.0,15.8,74,30.06,10.0,West,11.5,17.3,N/A,Snow,Light Snow,270,2013-02-12 14:35:00
8:55 AM,23.0,15.8,74,30.05,10.0,West,9.2,17.3,N/A,Snow,Light Snow,270,2013-02-12 14:55:00
9:15 AM,23.0,17.6,80,30.03,10.0,West,12.7,-,N/A,Snow,Light Snow,260,2013-02-12 15:15:00
9:35 AM,23.0,17.6,80,30.04,10.0,WNW,10.4,-,N/A,,Overcast,290,2013-02-12 15:35:00
9:55 AM,24.8,17.6,74,30.03,10.0,WNW,6.9,-,N/A,Snow,Light Snow,300,2013-02-12 15:55:00
10:15 AM,24.8,17.6,74,30.03,10.0,West,8.1,-,N/A,,Overcast,280,2013-02-12 16:15:00
10:35 AM,26.6,17.6,69,30.03,10.0,West,6.9,-,N/A,,Overcast,270,2013-02-12 16:35:00
10:55 AM,26.6,19.4,74,30.04,10.0,WSW,8.1,-,N/A,,Overcast,250,2013-02-12 16:55:00
11:15 AM,26.6,19.4,74,30.03,10.0,WSW,6.9,-,N/A,,Overcast,250,2013-02-12 17:15:00
11:35 AM,26.6,19.4,74,30.03,10.0,WSW,11.5,-,N/A,,Overcast,250,2013-02-12 17:35:00
11:55 AM,28.4,19.4,69,30.01,10.0,WSW,8.1,-,N/A,,Overcast,250,2013-02-12 17:55:00
12:15 PM,30.2,19.4,64,29.99,10.0,WSW,8.1,-,N/A,,Overcast,240,2013-02-12 18:15:00
12:55 PM,30.2,21.2,69,29.98,10.0,WSW,10.4,-,N/A,,Mostly Cloudy,250,2013-02-12 18:55:00
1:15 PM,30.2,21.2,69,29.97,10.0,WSW,8.1,-,N/A,,Scattered Clouds,250,2013-02-12 19:15:00
1:35 PM,32.0,21.2,64,29.97,10.0,SW,9.2,-,N/A,,Scattered Clouds,230,2013-02-12 19:35:00
1:55 PM,32.0,21.2,64,29.95,10.0,WSW,11.5,-,N/A,,Scattered Clouds,240,2013-02-12 19:55:00
2:15 PM,32.0,21.2,64,29.95,10.0,WSW,10.4,-,N/A,,Clear,240,2013-02-12 20:15:00
2:35 PM,32.0,23.0,69,29.94,10.0,WSW,10.4,-,N/A,,Scattered Clouds,240,2013-02-12 20:35:00
2:55 PM,32.0,23.0,69,29.93,10.0,WSW,5.8,-,N/A,,Clear,240,2013-02-12 20:55:00
3:15 PM,32.0,23.0,69,29.93,5.0,WSW,6.9,-,N/A,,Haze,240,2013-02-12 21:15:00
3:55 PM,32.0,23.0,69,29.93,10.0,WSW,8.1,-,N/A,,Clear,240,2013-02-12 21:55:00
4:15 PM,32.0,23.0,69,29.92,10.0,SW,6.9,-,N/A,,Clear,230,2013-02-12 22:15:00
4:55 PM,32.0,23.0,69,29.91,10.0,SW,4.6,-,N/A,,Clear,220,2013-02-12 22:55:00
5:15 PM,32.0,23.0,69,29.91,10.0,South,5.8,-,N/A,,Clear,180,2013-02-12 23:15:00
5:35 PM,32.0,23.0,69,29.90,10.0,South,4.6,-,N/A,,Clear,170,2013-02-12 23:35:00
5:55 PM,30.2,23.0,75,29.90,10.0,South,4.6,-,N/A,,Clear,180,2013-02-12 23:55:00
6:15 PM,30.2,23.0,75,29.89,10.0,South,4.6,-,N/A,,Clear,180,2013-02-13 00:15:00
6:35 PM,30.2,23.0,75,29.89,10.0,SSW,6.9,-,N/A,,Clear,200,2013-02-13 00:35:00
6:55 PM,30.2,23.0,75,29.89,10.0,South,5.8,-,N/A,,Clear,190,2013-02-13 00:55:00
7:15 PM,30.2,23.0,75,29.89,10.0,South,4.6,-,N/A,,Clear,180,2013-02-13 01:15:00
7:35 PM,30.2,23.0,75,29.89,10.0,South,5.8,-,N/A,,Clear,190,2013-02-13 01:35:00
8:15 PM,28.4,23.0,80,29.88,10.0,South,5.8,-,N/A,,Clear,180,2013-02-13 02:15:00
8:35 PM,28.4,23.0,80,29.88,10.0,SSE,4.6,-,N/A,,Clear,160,2013-02-13 02:35:00
8:55 PM,28.4,23.0,80,29.87,10.0,South,5.8,-,N/A,,Clear,170,2013-02-13 02:55:00
9:15 PM,28.4,23.0,80,29.87,10.0,South,5.8,-,N/A,,Clear,180,2013-02-13 03:15:00
9:35 PM,28.4,23.0,80,29.86,10.0,South,6.9,-,N/A,,Clear,180,2013-02-13 03:35:00
9:55 PM,28.4,23.0,80,29.85,10.0,South,6.9,-,N/A,,Clear,180,2013-02-13 03:55:00
10:15 PM,28.4,23.0,80,29.85,10.0,South,6.9,-,N/A,,Clear,180,2013-02-13 04:15:00
10:35 PM,28.4,23.0,80,29.84,10.0,South,6.9,-,N/A,,Clear,190,2013-02-13 04:35:00
10:55 PM,26.6,23.0,86,29.84,10.0,South,6.9,-,N/A,,Clear,170,2013-02-13 04:55:00
11:35 PM,26.6,23.0,86,29.83,10.0,SSE,5.8,-,N/A,,Clear,160,2013-02-13 05:35:00
11:55 PM,26.6,23.0,86,29.82,7.0,SSE,5.8,-,N/A,,Clear,160,2013-02-13 05:55:00